Winfield, KS

3:11 PM CST on December 09, 2019 (GMT -0600)
Strother

Weather History for KWLD - August, 2019

Change the Weather History Date:

Saturday, August 31, 2019

  Actual Average Record
Temperature  
Mean Temperature 71 °F -  
Max Temperature 79 °F 89 °F 107 °F (2011)
Min Temperature 63 °F 66 °F 59 °F (2017)
Cooling Degree Days 6    
Growing Degree Days 21 (Base 50)    
Moisture  
Dew Point 63 °F    
Average Humidity 82    
Maximum Humidity 97    
Minimum Humidity 66    
Precipitation  
Precipitation 0.00 in - - ()
Sea Level Pressure  
Sea Level Pressure 30.12 in    
Wind  
Wind Speed 4 mph ()    
Max Wind Speed 10 mph    
Max Gust Speed 17 mph    
Visibility 10.0 miles    
Events      
Averages and records for this station are not official NWS values.
T = Trace of Precipitation, MM = Missing Value Source: Averaged Metar Reports

Daily Weather History Graph

Daily Weather History Graph

Search for Another Location

Airport or City:

Astronomy

Aug. 31, 2019 Rise Set
Actual Time 6:57 AM CDT 7:58 PM CDT
Civil Twilight 6:31 AM CDT 8:25 PM CDT
Nautical Twilight 5:59 AM CDT 8:56 PM CDT
Astronomical Twilight 5:26 AM CDT 9:29 PM CDT
Moon 8:14 AM CDT (8/31) 9:13 PM CDT (8/31)
Length of Visible Light 13h 54m
Length of Day
13h 00m
New Moon, 3% of the Moon is Illuminated
Aug 31
New Moon
Sep 5
First Quarter
Sep 13
Full
Sep 21
Last Quarter
Sep 28
New

Hourly Weather History & Observations

Time (CDT) Temp. Dew Point Humidity Pressure Visibility Wind Dir Wind Speed Gust Speed Precip Events Conditions
12:54 AM 66.0 °F 63.0 °F 90% 30.14 in 10.0 mi ESE 6.9 mph - N/A   Clear
1:54 AM 64.9 °F 62.1 °F 90% 30.14 in 10.0 mi East 5.8 mph - N/A   Clear
2:54 AM 64.0 °F 62.1 °F 93% 30.12 in 10.0 mi East 4.6 mph - N/A   Clear
3:54 AM 63.0 °F 61.0 °F 93% 30.13 in 10.0 mi ESE 3.5 mph - N/A   Clear
4:54 AM 63.0 °F 61.0 °F 93% 30.13 in 10.0 mi East 3.5 mph - N/A   Clear
5:11 AM 63.0 °F 61.0 °F 93% 30.16 in 10.0 mi NE 4.6 mph - N/A   Scattered Clouds
5:22 AM 63.0 °F 62.1 °F 97% 30.15 in 10.0 mi Calm Calm - N/A   Mostly Cloudy
5:54 AM 63.0 °F 61.0 °F 93% 30.14 in 10.0 mi East 3.5 mph - N/A   Mostly Cloudy
6:04 AM 63.0 °F 61.0 °F 93% 30.16 in 10.0 mi East 3.5 mph - N/A   Scattered Clouds
6:54 AM 63.0 °F 62.1 °F 97% 30.13 in 10.0 mi ENE 4.6 mph - N/A   Clear
7:54 AM 64.0 °F 62.1 °F 93% 30.15 in 10.0 mi NE 4.6 mph - N/A   Clear
8:54 AM 64.9 °F 60.1 °F 84% 30.17 in 10.0 mi East 4.6 mph - N/A   Clear
9:54 AM 66.0 °F 60.1 °F 81% 30.16 in 10.0 mi East 6.9 mph - N/A   Clear
10:54 AM 68.0 °F 61.0 °F 78% 30.19 in 10.0 mi Calm Calm - N/A   Scattered Clouds
11:54 AM 70.0 °F 61.0 °F 73% 30.16 in 10.0 mi ENE 3.5 mph - N/A   Mostly Cloudy
12:54 PM 71.1 °F 62.1 °F 73% 30.12 in 10.0 mi East 8.1 mph - N/A   Partly Cloudy
1:54 PM 73.9 °F 64.0 °F 71% 30.07 in 10.0 mi Variable 5.8 mph 17.3 mph N/A   Mostly Cloudy
2:54 PM 75.0 °F 64.0 °F 69% 30.07 in 10.0 mi East 10.4 mph - N/A   Clear
3:51 PM 75.2 °F 64.4 °F 69% 30.12 in 10.0 mi South 4.6 mph - N/A   Mostly Cloudy
3:54 PM 75.0 °F 64.9 °F 71% 30.10 in 10.0 mi South 4.6 mph - N/A   Mostly Cloudy
4:15 PM 79.0 °F 66.9 °F 66% 30.12 in 10.0 mi Calm Calm - N/A   Overcast
4:32 PM 75.9 °F 66.0 °F 71% 30.12 in 10.0 mi ESE 4.6 mph - N/A   Overcast
4:54 PM 77.0 °F 66.9 °F 71% 30.09 in 10.0 mi Variable 4.6 mph - N/A   Overcast
5:07 PM 78.1 °F 66.0 °F 66% 30.10 in 10.0 mi Variable 4.6 mph - N/A   Mostly Cloudy
5:54 PM 77.0 °F 64.9 °F 66% 30.07 in 10.0 mi ENE 4.6 mph - N/A   Mostly Cloudy
6:54 PM 75.9 °F 66.0 °F 71% 30.07 in 10.0 mi ESE 5.8 mph - N/A   Clear
7:54 PM 73.9 °F 66.0 °F 76% 30.08 in 10.0 mi East 5.8 mph - N/A   Partly Cloudy
8:54 PM 71.1 °F 66.9 °F 87% 30.10 in 10.0 mi East 5.8 mph - N/A   Clear
9:54 PM 70.0 °F 66.0 °F 87% 30.12 in 10.0 mi East 5.8 mph - N/A   Clear
10:54 PM 68.0 °F 66.0 °F 93% 30.12 in 10.0 mi SE 3.5 mph - N/A   Scattered Clouds
11:54 PM 68.0 °F 66.0 °F 93% 30.12 in 10.0 mi Calm Calm - N/A   Partly Cloudy